Fairbury, Nebraska, United States (68352)
Lat: 40.14N, Lon: 97.18W
Wx Zone: NEZ088
Local Info
Past Weather Observations for Today

NOTE: This archive is for the closest National Weather Service station to Fairbury. Information may differ from the station used for current weather conditions.

Time Weather Temperature Dewpoint Humidity Pressure Winds Precip Visibility
18:15
Partly Cloudy
77°F / 25°C 48°F / 9°C 36% 29.95 in
(1014 mb)
S 13.8 mph
(S 22 kph)
- 10SM
17:55
Partly Cloudy
77°F / 25°C 48°F / 9°C 36% 29.95 in
(1014 mb)
SSE 15 mph
(SSE 24 kph)
- 10SM
17:35
Mostly Cloudy
79°F / 26°C 48°F / 9°C 34% 29.95 in
(1014 mb)
S 17.3 mph
(S 28 kph)
- 10SM
17:15
Mostly Cloudy
79°F / 26°C 48°F / 9°C 34% 29.95 in
(1014 mb)
S 17.3 mph
(S 28 kph)
- 10SM
16:55
Mostly Cloudy
79°F / 26°C 48°F / 9°C 34% 29.95 in
(1014 mb)
S 17.3 mph
(S 28 kph)
- 10SM
16:35
Overcast
79°F / 26°C 48°F / 9°C 34% 29.95 in
(1014 mb)
S 18.4 mph
(S 30 kph)
- 10SM
16:15
Overcast
79°F / 26°C 48°F / 9°C 34% 29.95 in
(1014 mb)
S 19.6 mph
(S 32 kph)
- 10SM
15:55
Mostly Cloudy
79°F / 26°C 48°F / 9°C 34% 29.95 in
(1014 mb)
S 18.4 mph
(S 30 kph)
- 10SM
15:35
Mostly Cloudy
79°F / 26°C 48°F / 9°C 34% 29.95 in
(1014 mb)
S 13.8 mph
(S 22 kph)
- 10SM
15:15
Overcast
79°F / 26°C 48°F / 9°C 34% 29.95 in
(1014 mb)
S 18.4 mph
(S 30 kph)
- 10SM
14:55
Mostly Cloudy
79°F / 26°C 46°F / 8°C 32% 29.95 in
(1014 mb)
S 20.7 mph
(S 33 kph)
- 10SM
14:30
Partly Cloudy
79°F / 26°C 46°F / 8°C 32% 29.98 in
(1015 mb)
S 23 mph
(S 37 kph)
- 10SM
14:15
Partly Cloudy
79°F / 26°C 46°F / 8°C 32% 29.98 in
(1015 mb)
S 18.4 mph
(S 30 kph)
- 10SM
13:55
Mostly Cloudy
79°F / 26°C 46°F / 8°C 32% 29.98 in
(1015 mb)
SW 20.7 mph
(SW 33 kph)
- 10SM
13:35
Mostly Cloudy
79°F / 26°C 46°F / 8°C 32% 29.98 in
(1015 mb)
S 23 mph
(S 37 kph)
- 10SM
13:15
Partly Cloudy
79°F / 26°C 46°F / 8°C 32% 29.98 in
(1015 mb)
S 24.2 mph
(S 39 kph)
- 10SM
12:55
Partly Cloudy
79°F / 26°C 46°F / 8°C 32% 29.98 in
(1015 mb)
S 17.3 mph
(S 28 kph)
- 10SM
12:35
Partly Cloudy
77°F / 25°C 46°F / 8°C 34% 29.98 in
(1015 mb)
S 20.7 mph
(S 33 kph)
- 10SM
12:15
Clear
77°F / 25°C 48°F / 9°C 36% 29.98 in
(1015 mb)
S 25.3 mph
(S 41 kph)
- 10SM
11:55
Clear
73°F / 23°C 48°F / 9°C 41% 30.01 in
(1016 mb)
S 17.3 mph
(S 28 kph)
- 10SM
11:35
Clear
72°F / 22°C 48°F / 9°C 44% 30.01 in
(1016 mb)
S 19.6 mph
(S 32 kph)
- 10SM
11:15
Clear
72°F / 22°C 48°F / 9°C 44% 30.01 in
(1016 mb)
S 21.9 mph
(S 35 kph)
- 10SM
10:55
Clear
72°F / 22°C 48°F / 9°C 44% 30.01 in
(1016 mb)
S 20.7 mph
(S 33 kph)
- 10SM
10:35
Clear
70°F / 21°C 48°F / 9°C 46% 30.01 in
(1016 mb)
S 20.7 mph
(S 33 kph)
- 10SM
10:15
Clear
70°F / 21°C 48°F / 9°C 46% 30.04 in
(1017 mb)
SSE 20.7 mph
(SSE 33 kph)
- 10SM
09:55
Clear
68°F / 20°C 48°F / 9°C 49% 30.04 in
(1017 mb)
SSE 23 mph
(SSE 37 kph)
- 10SM
09:35
Clear
66°F / 19°C 48°F / 9°C 52% 30.04 in
(1017 mb)
SSE 21.9 mph
(SSE 35 kph)
- 10SM
09:15
Clear
66°F / 19°C 48°F / 9°C 52% 30.04 in
(1017 mb)
SSE 19.6 mph
(SSE 32 kph)
- 10SM
08:55
Clear
64°F / 18°C 46°F / 8°C 52% 30.01 in
(1016 mb)
S 19.6 mph
(S 32 kph)
- 10SM
08:35
Clear
61°F / 16°C 46°F / 8°C 59% 30.01 in
(1016 mb)
S 19.6 mph
(S 32 kph)
- 10SM
08:15
Clear
61°F / 16°C 46°F / 8°C 59% 30.01 in
(1016 mb)
S 21.9 mph
(S 35 kph)
- 10SM
07:55
Clear
59°F / 15°C 45°F / 7°C 59% 30.01 in
(1016 mb)
S 21.9 mph
(S 35 kph)
- 10SM
07:35
Clear
57°F / 14°C 45°F / 7°C 63% 30.01 in
(1016 mb)
S 16.1 mph
(S 26 kph)
- 10SM
07:15
Clear
55°F / 13°C 43°F / 6°C 63% 30.01 in
(1016 mb)
S 18.4 mph
(S 30 kph)
- 10SM
06:55
Clear
54°F / 12°C 43°F / 6°C 67% 30.01 in
(1016 mb)
S 16.1 mph
(S 26 kph)
- 10SM
06:35
Clear
54°F / 12°C 41°F / 5°C 63% 30.01 in
(1016 mb)
S 17.3 mph
(S 28 kph)
- 10SM
06:15
Clear
54°F / 12°C 41°F / 5°C 63% 30.01 in
(1016 mb)
SSE 17.3 mph
(SSE 28 kph)
- 10SM
05:55
Clear
54°F / 12°C 41°F / 5°C 63% 30.01 in
(1016 mb)
SSE 15 mph
(SSE 24 kph)
- 10SM
05:35
Clear
54°F / 12°C 41°F / 5°C 63% 30.04 in
(1017 mb)
SSE 12.7 mph
(SSE 20 kph)
- 10SM
05:15
Clear
54°F / 12°C 39°F / 4°C 58% 30.04 in
(1017 mb)
S 12.7 mph
(S 20 kph)
- 10SM
04:55
Clear
54°F / 12°C 39°F / 4°C 58% 30.01 in
(1016 mb)
SSE 13.8 mph
(SSE 22 kph)
- 10SM
04:35
Clear
54°F / 12°C 39°F / 4°C 58% 30.04 in
(1017 mb)
S 12.7 mph
(S 20 kph)
- 10SM
04:15
Clear
54°F / 12°C 39°F / 4°C 58% 30.04 in
(1017 mb)
S 15 mph
(S 24 kph)
- 10SM
03:55
Clear
54°F / 12°C 39°F / 4°C 58% 30.04 in
(1017 mb)
S 15 mph
(S 24 kph)
- 10SM
03:35
Clear
54°F / 12°C 39°F / 4°C 58% 30.04 in
(1017 mb)
S 16.1 mph
(S 26 kph)
- 10SM
03:15
Clear
54°F / 12°C 39°F / 4°C 58% 30.04 in
(1017 mb)
S 18.4 mph
(S 30 kph)
- 10SM
02:55
Clear
55°F / 13°C 39°F / 4°C 55% 30.04 in
(1017 mb)
S 17.3 mph
(S 28 kph)
- 10SM
02:35
Clear
55°F / 13°C 39°F / 4°C 55% 30.04 in
(1017 mb)
S 17.3 mph
(S 28 kph)
- 10SM
02:15
Clear
55°F / 13°C 39°F / 4°C 55% 30.04 in
(1017 mb)
S 13.8 mph
(S 22 kph)
- 10SM
01:55
Clear
55°F / 13°C 39°F / 4°C 55% 30.04 in
(1017 mb)
S 16.1 mph
(S 26 kph)
- 10SM
01:35
Clear
55°F / 13°C 39°F / 4°C 55% 30.04 in
(1017 mb)
S 16.1 mph
(S 26 kph)
- 10SM
01:15
Clear
55°F / 13°C 39°F / 4°C 55% 30.04 in
(1017 mb)
S 17.3 mph
(S 28 kph)
- 10SM
00:55
Clear
55°F / 13°C 41°F / 5°C 59% 30.06 in
(1018 mb)
SSE 15 mph
(SSE 24 kph)
- 10SM
00:35
Clear
57°F / 14°C 41°F / 5°C 55% 30.06 in
(1018 mb)
S 16.1 mph
(S 26 kph)
- 10SM
00:15
Clear
57°F / 14°C 41°F / 5°C 55% 30.06 in
(1018 mb)
SSE 15 mph
(SSE 24 kph)
- 10SM
Time Weather Temperature Dewpoint Humidity Pressure Winds Precip Visibility


Weather for websites

WeatherForYou.com, LLC is not responsible for any damages or problems caused by this service. Current weather conditions are obtained from the closest station including government and personal stations which may have varying degrees of accuracy. Weather forecasts are derived from the NOAA NDFD. Like all things, this site belongs to Jesus Christ... He just trusts me to maintain it. If you have any questions or comments email webmaster@weatherforyou.com

Copyright © 2014, WeatherForYou.com LLC. All rights reserved.